TimePDT,TemperatureF,Dew PointF,Humidity,Sea Level PressureIn,VisibilityMPH,Wind Direction,Wind SpeedMPH,Gust SpeedMPH,PrecipitationIn,Events,Conditions,WindDirDegrees,DateUTC
12:53 AM,55.0,39.9,57,30.05,10.0,SW,9.2,16.1,N/A,,Clear,230,2011-04-25 07:53:00
1:53 AM,55.0,39.9,57,30.04,10.0,West,17.3,20.7,N/A,,Clear,280,2011-04-25 08:53:00
2:53 AM,55.0,39.9,57,30.04,10.0,WNW,25.3,29.9,N/A,,Clear,290,2011-04-25 09:53:00
3:53 AM,54.0,39.0,57,30.04,10.0,WNW,13.8,-,N/A,,Clear,300,2011-04-25 10:53:00
4:53 AM,53.1,39.0,59,30.06,10.0,WNW,11.5,-,N/A,,Clear,290,2011-04-25 11:53:00
5:53 AM,52.0,39.0,61,30.06,10.0,West,16.1,-,N/A,,Clear,280,2011-04-25 12:53:00
6:53 AM,52.0,39.9,63,30.11,10.0,West,10.4,-,N/A,,Clear,280,2011-04-25 13:53:00
7:53 AM,55.0,39.0,55,30.10,10.0,WNW,10.4,-,N/A,,Clear,290,2011-04-25 14:53:00
8:53 AM,59.0,39.0,48,30.10,10.0,West,18.4,-,N/A,,Clear,280,2011-04-25 15:53:00
9:53 AM,62.1,36.0,38,30.10,10.0,WNW,17.3,23.0,N/A,,Clear,300,2011-04-25 16:53:00
10:53 AM,66.9,35.1,31,30.09,10.0,NW,13.8,-,N/A,,Clear,310,2011-04-25 17:53:00
11:53 AM,69.1,33.1,26,30.07,10.0,WNW,19.6,-,N/A,,Clear,290,2011-04-25 18:53:00
12:53 PM,71.1,28.9,21,30.05,10.0,NW,20.7,27.6,N/A,,Clear,310,2011-04-25 19:53:00
1:53 PM,72.0,32.0,23,30.03,10.0,West,27.6,33.4,N/A,,Clear,280,2011-04-25 20:53:00
2:53 PM,71.1,32.0,24,30.02,10.0,WNW,29.9,38.0,N/A,,Clear,290,2011-04-25 21:53:00
3:53 PM,70.0,39.0,32,30.01,10.0,WNW,27.6,40.3,N/A,,Clear,290,2011-04-25 22:53:00
4:53 PM,69.1,42.1,38,29.98,10.0,WNW,29.9,36.8,N/A,,Clear,290,2011-04-25 23:53:00
5:53 PM,66.9,44.1,44,29.98,10.0,West,29.9,38.0,N/A,,Clear,280,2011-04-26 00:53:00
6:53 PM,63.0,44.1,50,29.98,10.0,WNW,24.2,36.8,N/A,,Clear,290,2011-04-26 01:53:00
7:53 PM,61.0,44.1,54,29.97,10.0,West,16.1,23.0,N/A,,Clear,270,2011-04-26 02:53:00
8:53 PM,60.1,44.1,55,29.97,10.0,West,26.5,32.2,N/A,,Clear,280,2011-04-26 03:53:00
9:53 PM,59.0,44.1,58,29.96,10.0,West,29.9,35.7,N/A,,Clear,270,2011-04-26 04:53:00
10:53 PM,59.0,43.0,55,29.94,10.0,West,32.2,43.7,N/A,,Clear,280,2011-04-26 05:53:00
11:53 PM,57.9,43.0,58,29.93,10.0,West,36.8,42.6,N/A,,Clear,280,2011-04-26 06:53:00